This is the latest recevied weather packets stored in our database for station/object IT9CNT. If no packets are shown the sender has not sent any weather packets the latest 1 day(s).
| Time | Temp. | Humidity | Pressure | Rain* | Wind** | Luminosity | Snow |
|---|---|---|---|---|---|---|---|
| 1777984323 | 20° C | 76% | 1013.9 hPa | 0 mm | 3.58 m/s, 153° | - | - |
| 1777984263 | 19.44° C | 76% | 1013.9 hPa | 0 mm | 4.02 m/s, 154° | - | - |
| 1777984203 | 19.44° C | 75% | 1013.9 hPa | 0 mm | 3.58 m/s, 158° | - | - |
| 1777984143 | 19.44° C | 76% | 1013.9 hPa | 0 mm | 4.02 m/s, 159° | - | - |
| 1777984083 | 19.44° C | 76% | 1014.1 hPa | 0 mm | 4.02 m/s, 158° | - | - |
| 1777984023 | 18.89° C | 75% | 1014 hPa | 0 mm | 4.02 m/s, 154° | - | - |
| 1777983963 | 19.44° C | 73% | 1013.8 hPa | 0 mm | 3.58 m/s, 148° | - | - |
| 1777983903 | 19.44° C | 72% | 1013.9 hPa | 0 mm | 3.58 m/s, 145° | - | - |
| 1777983843 | 19.44° C | 72% | 1014.1 hPa | 0 mm | 4.02 m/s, 142° | - | - |
| 1777983783 | 19.44° C | 73% | 1013.9 hPa | 0 mm | 4.02 m/s, 138° | - | - |
| 1777983723 | 18.89° C | 73% | 1014.1 hPa | 0 mm | 4.02 m/s, 131° | - | - |
| 1777983663 | 19.44° C | 73% | 1014.1 hPa | 0 mm | 4.02 m/s, 127° | - | - |
| 1777983603 | 19.44° C | 72% | 1014.1 hPa | 0 mm | 4.02 m/s, 126° | - | - |
| 1777983543 | 19.44° C | 72% | 1014.1 hPa | 0 mm | 3.58 m/s, 123° | - | - |
| 1777983483 | 19.44° C | 71% | 1013.8 hPa | 0 mm | 3.58 m/s, 127° | - | - |
| 1777983423 | 19.44° C | 71% | 1014 hPa | 0 mm | 3.58 m/s, 138° | - | - |
| 1777983363 | 18.89° C | 71% | 1014.1 hPa | 0 mm | 3.58 m/s, 143° | - | - |
| 1777983303 | 19.44° C | 71% | 1014.1 hPa | 0 mm | 3.58 m/s, 143° | - | - |
| 1777983243 | 19.44° C | 70% | 1014.1 hPa | 0 mm | 3.58 m/s, 150° | - | - |
| 1777983184 | 19.44° C | 71% | 1013.9 hPa | 0 mm | 3.58 m/s, 155° | - | - |
| 1777983123 | 18.89° C | 70% | 1014 hPa | 0 mm | 3.58 m/s, 167° | - | - |
| 1777983063 | 20° C | 70% | 1014.1 hPa | 0 mm | 3.13 m/s, 178° | - | - |
| 1777983015 | 19.44° C | 70% | 1014.2 hPa | 0 mm | 3.58 m/s, 173° | - | - |
| 1777982944 | 18.89° C | 69% | 1014.2 hPa | 0 mm | 3.58 m/s, 168° | - | - |
| 1777982883 | 19.44° C | 67% | 1014.3 hPa | 0 mm | 3.58 m/s, 162° | - | - |
* Rain latest hour (hover to see other rain measurements)
** Current wind speed in m/s (hover to see current wind gust speed)